DW8570 Weather Reports


Display with metric or nautical units.
time (UTC)temp
F
wind
direction
speed
MPH
gust
MPH
rain 1hr
in
rain 24hr
in
rain mn
in
humidity
%
barometer
mb
20181114171526 33 71 0.0 2.0 0.00 0.02 0.00 94 1026.4
20181114170023 33 25 0.0 3.0 0.00 0.02 0.00 94 1027.0
20181114164546 33 21 0.0 3.0 0.00 0.02 0.00 94 1026.7
20181114163027 0 0.0 0.0 0.00 0.02 0.00 1027.0
20181114161524 0 0.0 0.0 0.00 0.02 0.00 1027.1
20181114160004 0 0.0 0.0 0.00 0.02 0.00 1027.3
20181114154636 0 0.0 0.0 0.00 0.02 0.00 1027.8
20181114153213 0 0.0 0.0 0.00 0.02 0.00 1028.0
20181114151634 0 0.0 0.0 0.00 0.02 0.00 1027.5
20181114150146 0 0.0 0.0 0.00 0.02 0.00 1027.7
20181114144734 0 0.0 0.0 0.00 0.02 0.00 1028.0
20181114143126 0 0.0 0.0 0.00 0.02 0.00 1027.5
20181114141608 0 0.0 0.0 0.00 0.02 0.00 1027.8
20181114140054 0 0.0 0.0 0.00 0.02 0.00 1027.6
20181114134535 0 0.0 0.0 0.00 0.02 0.00 1027.8
20181114133114 0 0.0 0.0 0.00 0.02 0.00 1027.4
20181114131529 0 0.0 0.0 0.00 0.02 0.00 1027.3
20181114130027 0 0.0 0.0 0.00 0.02 0.00 1026.9
20181114124508 0 0.0 0.0 0.00 0.02 0.00 1027.1
20181114121721 0 0.0 0.0 0.00 0.02 0.00 1027.4
20181114120143 0 0.0 0.0 0.00 0.02 0.00 1027.4
20181114114613 0 0.0 0.0 0.00 0.02 0.00 1027.3
20181114113144 0 0.0 0.0 0.00 0.02 0.00 1027.4
20181114111614 0 0.0 0.0 0.00 0.02 0.00 1027.4
20181114110046 0 0.0 0.0 0.00 0.02 0.00 1028.0
20181114104559 0 0.0 0.0 0.00 0.02 0.00 1027.8
20181114103039 0 0.0 0.0 0.00 0.02 0.00 1027.6
20181114101548 33 58 2.0 7.0 0.00 0.02 0.00 88 1027.4
20181114100029 33 44 2.0 5.0 0.00 0.02 0.00 88 1027.8
20181114094603 33 9 3.0 10.0 0.00 0.03 0.00 88 1028.1
20181114093032 34 40 2.0 5.0 0.00 0.03 0.00 88 1028.1
20181114091535 34 55 2.0 5.0 0.00 0.03 0.00 88 1027.9
20181114090033 34 69 3.0 9.0 0.00 0.03 0.00 88 1028.1
20181114084526 34 17 4.0 9.0 0.00 0.03 0.00 88 1028.0
20181114083021 34 59 3.0 10.0 0.00 0.03 0.00 87 1027.7
20181114081523 34 54 3.0 10.0 0.00 0.03 0.00 88 1028.2
20181114080029 34 53 3.0 10.0 0.00 0.03 0.00 88 1028.1
20181114074516 34 360 1.0 7.0 0.00 0.03 0.00 89 1028.1
20181114073014 34 53 1.0 8.0 0.00 0.03 0.00 89 1028.0
20181114071539 34 67 2.0 8.0 0.00 0.03 0.00 89 1028.1
20181114070020 34 43 2.0 9.0 0.00 0.03 0.00 89 1027.7
20181114064543 34 31 3.0 8.0 0.00 0.03 0.00 89 1027.5
20181114063015 34 9 4.0 10.0 0.00 0.03 0.00 89 1028.0
20181114061749 34 42 3.0 7.0 0.01 0.03 0.00 89 1028.6
20181114060244 34 42 4.0 10.0 0.01 0.03 0.00 89 1027.9
20181114054635 34 36 3.0 8.0 0.01 0.03 0.03 89 1028.3
20181114053147 34 80 2.0 7.0 0.01 0.03 0.03 89 1028.7
20181114051704 34 18 2.0 6.0 0.00 0.02 0.02 89 1028.8
20181114050156 34 51 1.0 6.0 0.00 0.02 0.02 89 1028.7
20181114044656 34 47 1.0 6.0 0.00 0.02 0.02 89 1028.9
20181114043157 34 44 3.0 6.0 0.00 0.02 0.02 89 1028.9
20181114041608 34 50 1.0 7.0 0.00 0.02 0.02 89 1028.4
20181114040134 34 21 4.0 8.0 0.00 0.02 0.02 89 1028.5
20181114034650 34 40 2.0 5.0 0.00 0.02 0.02 90 1028.4
20181114033142 34 48 2.0 10.0 0.00 0.02 0.02 90 1028.8
20181114031602 34 25 1.0 9.0 0.00 0.02 0.02 90 1029.1
20181114030227 34 31 3.0 8.0 0.00 0.02 0.02 90 1028.7
20181114024621 34 36 1.0 7.0 0.00 0.02 0.02 90 1028.8
20181114023146 34 16 2.0 7.0 0.00 0.02 0.02 90 1028.9
20181114021729 34 42 3.0 7.0 0.00 0.02 0.02 90 1028.4
20181114020114 34 35 2.0 8.0 0.00 0.02 0.02 90 1028.3
20181114014607 34 27 2.0 7.0 0.00 0.03 0.02 90 1028.3
20181114013102 34 32 2.0 8.0 0.00 0.03 0.02 90 1028.3
20181114011642 35 51 2.0 7.0 0.00 0.03 0.02 91 1028.3
20181114010143 35 344 3.0 8.0 0.01 0.03 0.02 90 1028.1
20181114004636 35 31 0.0 6.0 0.01 0.03 0.02 90 1028.1
20181114003136 35 30 2.0 6.0 0.01 0.03 0.02 90 1028.4
20181114001634 35 333 2.0 6.0 0.01 0.03 0.02 90 1028.3
20181114000058 35 38 0.0 6.0 0.00 0.02 0.01 90 1027.9
20181113234619 35 56 1.0 7.0 0.00 0.02 0.01 90 1027.7
20181113233104 35 11 3.0 7.0 0.00 0.02 0.01 89 1027.8
20181113231612 35 23 2.0 9.0 0.00 0.02 0.01 90 1027.4
20181113230038 35 43 2.0 8.0 0.00 0.02 0.01 90 1027.0
20181113224610 35 315 4.0 9.0 0.00 0.02 0.01 89 1027.3
20181113223027 35 52 3.0 9.0 0.00 0.02 0.01 89 1026.8
20181113221537 36 23 4.0 11.0 0.00 0.02 0.01 89 1027.3
20181113220038 36 36 2.0 7.0 0.00 0.02 0.01 89 1026.9
20181113214522 36 33 4.0 8.0 0.00 0.03 0.01 89 1027.3
20181113213045 36 27 4.0 10.0 0.00 0.03 0.01 89 1027.0
20181113211543 36 343 2.0 7.0 0.00 0.03 0.01 89 1027.1
20181113210033 37 21 3.0 8.0 0.00 0.03 0.01 89 1027.1
20181113204528 37 22 3.0 8.0 0.00 0.03 0.01 89 1026.8
20181113203027 37 355 3.0 8.0 0.00 0.03 0.01 89 1026.8
20181113201526 37 21 4.0 8.0 0.00 0.03 0.01 89 1026.7
20181113200026 37 38 2.0 8.0 0.00 0.03 0.01 89 1026.6
20181113194525 37 31 3.0 9.0 0.00 0.03 0.01 90 1026.8
20181113193044 37 39 3.0 9.0 0.00 0.03 0.01 90 1026.0
20181113191535 37 30 4.0 10.0 0.00 0.03 0.01 90 1025.8
20181113190018 37 24 3.0 8.0 0.00 0.03 0.01 90 1025.9
20181113184540 37 336 3.0 8.0 0.00 0.04 0.01 91 1026.3
20181113183014 37 19 2.0 11.0 0.00 0.04 0.01 91 1026.2
20181113181513 37 22 2.0 10.0 0.00 0.04 0.01 91 1026.3
20181113180017 37 355 2.0 6.0 0.00 0.04 0.01 91 1026.9
20181113174515 37 35 3.0 7.0 0.00 0.04 0.01 91 1026.9
20181113173031 37 23 4.0 9.0 0.00 0.04 0.01 91 1026.7